Вернуться в каталог

STARLINK-35567

АктивенСвязьVLEO
NORAD 66472·PAYLOAD·🇺🇸 United States

Запущен Nov 15, 2025 с Cape Canaveral Space Force Station

Loading…

Ближайшие Пролёты (ближайшие 24 часа)

TLE

СвежийSource: CelesTrak SupGP

Эпоха: Sep 15, 2026, 03:00 UTC

1 66472C 25262S   26258.12548611  .00034293  00000+0  12418-2 0  2589
2 66472  43.0012 306.0639 0001525 263.4314  12.6622 15.27568839    14

Отслеживайте STARLINK-35567 в реальном времени с AllMySat

Download on the App Store